Date String (YYYY-MM-DD hh:mm:ss) UTC,Instrument flags,absolute air pressure of the measurement (hPa),sample flow rate (lpm),inlet stack bypass flow (lpm),air temperature of the measurement (°C),ambient temperature measured by the external sensor (°C),aerosol sample conditioner tube jacket temperature (°C),OPC LED temperature (°C),internal box temperature (°C),relative humidity of the measurement (%),span deviation,mass concentration of particles derived from Lorenz-Mie calculation of OPC scattering (μg/m³),mass concentration of particles derived from Lorenz-Mie calculation of OPC scattering (μg/m³),mass concentration of particles derived from Lorenz-Mie calculation of OPC scattering (μg/m³)
DateTimeUTC,F1_M11,P_M11,Q1_M11,Q2_M11,T1_M11,T2_M11,T3_M11,T4_M11,T5_M11,U1_M11,ZSPAN_M11,X2_M11,X0_M11,X1_M11
2024-01-23 14:00:00,SystemResetWarning,0825.8,5.00,000.00,022.2,021.3,000.0,030.6,023.6,17.4,0002.0,0009.16,0013.19,0008.62
2024-01-23 14:01:00,SystemResetWarning,0825.8,5.00,000.00,022.2,021.3,000.0,030.6,023.6,17.4,0001.8,0009.15,0013.14,0008.64
2024-01-23 14:02:00,SystemResetWarning,0825.8,5.00,000.00,022.2,021.3,000.0,030.6,023.6,17.4,0002.0,0009.14,0013.43,0008.63
2024-01-23 14:03:00,SystemResetWarning,0825.8,5.00,000.00,022.2,021.3,000.0,030.6,023.5,17.5,0002.5,0009.14,0013.09,0008.61
2024-01-23 14:04:00,SystemResetWarning,0825.8,5.00,000.00,022.2,021.3,000.0,030.6,023.5,17.5,0002.5,0009.14,0013.30,0008.61
2024-01-23 14:05:00,SystemResetWarning,0825.8,5.00,000.00,022.2,021.3,000.0,030.6,023.6,17.5,0002.6,0009.17,0014.11,0008.64
2024-01-23 14:06:00,SystemResetWarning,0825.9,5.00,000.00,022.2,021.3,000.0,030.6,023.5,17.5,0002.3,0009.21,0014.79,0008.67
2024-01-23 14:07:00,SystemResetWarning,0825.9,5.00,000.00,022.2,021.3,000.0,030.6,023.5,17.5,0001.9,0009.25,0014.94,0008.70
2024-01-23 14:08:00,SystemResetWarning,0825.9,5.00,000.00,022.2,021.3,000.0,030.6,023.5,17.6,0002.0,0009.25,0014.92,0008.71
2024-01-23 14:09:00,SystemResetWarning,0825.8,5.00,000.00,022.2,021.3,000.0,030.5,023.5,17.6,0001.6,0009.29,0015.09,0008.73
2024-01-23 14:10:00,SystemResetWarning,0825.9,5.00,000.00,022.2,021.2,000.0,030.5,023.5,17.6,0001.8,0009.33,0015.22,0008.75
2024-01-23 14:11:00,SystemResetWarning,0825.9,5.00,000.00,022.1,021.2,000.0,030.5,023.5,17.7,0001.8,0009.36,0015.26,0008.78
2024-01-23 14:12:00,SystemResetWarning,0825.9,5.00,000.00,022.1,021.2,000.0,030.5,023.5,17.7,0002.0,0009.41,0015.89,0008.83
2024-01-23 14:13:00,SystemResetWarning,0825.9,5.00,000.00,022.1,021.2,000.0,030.5,023.4,17.7,0001.9,0009.47,0016.56,0008.89
2024-01-23 14:14:00,SystemResetWarning,0825.8,4.99,000.00,022.1,021.2,000.0,030.5,023.4,17.7,0002.0,0009.54,0016.68,0008.96
2024-01-23 14:15:00,SystemResetWarning,0825.9,5.00,000.00,022.1,021.2,000.0,030.5,023.4,17.7,0002.3,0009.61,0016.75,0009.03
2024-01-23 14:16:00,SystemResetWarning,0825.9,5.00,000.00,022.1,021.2,000.0,030.5,023.4,17.7,0002.4,0009.65,0015.96,0009.11
2024-01-23 14:17:00,SystemResetWarning,0825.9,5.00,000.00,022.1,021.1,000.0,030.5,023.4,17.7,0002.5,0009.72,0016.30,0009.19
2024-01-23 14:18:00,SystemResetWarning,0825.9,5.00,000.00,022.1,021.1,000.0,030.5,023.4,17.8,0002.7,0009.81,0016.47,0009.27
2024-01-23 14:19:00,SystemResetWarning,0825.9,5.00,000.00,022.0,021.1,000.0,030.5,023.4,17.8,0002.5,0009.91,0016.53,0009.36
2024-01-23 14:20:00,SystemResetWarning,0825.9,5.01,000.00,022.0,021.1,000.0,030.5,023.4,17.9,0002.7,0009.96,0017.27,0009.44
2024-01-23 14:21:00,SystemResetWarning,0825.9,5.01,000.00,022.0,021.1,000.0,030.5,023.4,17.9,0002.8,0010.01,0017.43,0009.52
2024-01-23 14:22:00,SystemResetWarning,0825.9,5.00,000.00,022.0,021.0,000.0,030.4,023.3,18.0,0002.8,0010.11,0017.53,0009.59
2024-01-23 14:23:00,SystemResetWarning,0825.9,5.01,000.00,022.0,021.0,000.0,030.4,023.3,18.1,0002.7,0010.16,0017.63,0009.62
2024-01-23 14:24:00,SystemResetWarning,0825.9,4.99,000.00,022.0,021.0,000.0,030.4,023.3,18.1,0002.5,0010.17,0016.79,0009.65
2024-01-23 14:25:00,SystemResetWarning,0825.9,4.99,000.00,022.0,021.0,000.0,030.4,023.3,18.2,0002.3,0010.16,0016.97,0009.66
2024-01-23 14:26:00,SystemResetWarning,0825.9,5.00,000.00,022.0,021.0,000.0,030.4,023.3,18.2,0002.3,0010.16,0017.12,0009.67
2024-01-23 14:27:00,SystemResetWarning,0825.9,5.00,000.00,022.0,021.0,000.0,030.4,023.3,18.3,0002.1,0010.17,0017.24,0009.68
2024-01-23 14:28:00,SystemResetWarning,0825.9,5.00,000.00,021.9,020.9,000.0,030.4,023.3,18.4,0002.4,0010.16,0016.88,0009.68
2024-01-23 14:29:00,SystemResetWarning,0825.9,5.00,000.00,021.9,020.9,000.0,030.4,023.2,18.4,0002.5,0010.15,0017.13,0009.67
2024-01-23 14:30:00,SystemResetWarning,0825.9,5.00,000.00,021.9,020.9,000.0,030.4,023.2,18.5,0002.8,0010.11,0017.18,0009.65
2024-01-23 14:31:00,SystemResetWarning,0825.9,5.00,000.00,021.9,020.9,000.0,030.4,023.2,18.4,0002.8,0010.11,0016.75,0009.65
2024-01-23 14:32:00,SystemResetWarning,0825.9,5.00,000.00,021.9,020.9,000.0,030.3,023.2,18.4,0002.7,0010.11,0016.35,0009.66
2024-01-23 14:33:00,SystemResetWarning,0825.9,5.00,000.00,021.9,020.8,000.0,030.3,023.2,18.4,0002.7,0010.12,0016.28,0009.68
2024-01-23 14:34:00,SystemResetWarning,0825.9,5.00,000.00,021.9,020.8,000.0,030.3,023.2,18.4,0002.6,0010.13,0016.33,0009.72
2024-01-23 14:35:00,SystemResetWarning,0825.9,5.00,000.00,021.9,020.8,000.0,030.3,023.2,18.4,0002.9,0010.15,0016.42,0009.73
2024-01-23 14:36:00,SystemResetWarning,0825.9,4.99,000.00,021.8,020.8,000.0,030.3,023.1,18.4,0003.1,0010.21,0016.49,0009.76
2024-01-23 14:37:00,SystemResetWarning,0825.9,5.00,000.00,021.8,020.8,000.0,030.3,023.1,18.4,0002.8,0010.27,0016.42,0009.81
2024-01-23 14:38:00,SystemResetWarning,0825.9,5.00,000.00,021.8,020.8,000.0,030.3,023.1,18.3,0002.8,0010.32,0016.24,0009.84
2024-01-23 14:39:00,SystemResetWarning,0825.9,5.00,000.00,021.8,020.8,000.0,030.3,023.1,18.3,0002.6,0010.40,0016.38,0009.87
2024-01-23 14:40:00,SystemResetWarning,0825.9,5.00,000.00,021.8,020.8,000.0,030.3,023.1,18.3,0002.5,0010.43,0015.47,0009.91
2024-01-23 14:41:00,SystemResetWarning,0825.9,5.00,000.00,021.8,020.7,000.0,030.2,023.1,18.4,0002.4,0010.47,0015.83,0009.96
2024-01-23 14:42:00,SystemResetWarning,0825.9,4.99,000.00,021.8,020.7,000.0,030.2,023.1,18.4,0002.5,0010.51,0016.00,0009.99
2024-01-23 14:43:00,SystemResetWarning,0825.9,4.99,000.00,021.7,020.7,000.0,030.2,023.0,18.4,0002.7,0010.54,0016.05,0010.02
2024-01-23 14:44:00,SystemResetWarning,0825.9,5.00,000.00,021.7,020.7,000.0,030.2,023.0,18.5,0002.7,0010.55,0016.02,0010.06
2024-01-23 14:45:00,SystemResetWarning,0825.9,5.00,000.00,021.7,020.7,000.0,030.2,023.0,18.5,0002.8,0010.57,0015.93,0010.10
2024-01-23 14:46:00,SystemResetWarning,0825.9,5.00,000.00,021.7,020.6,000.0,030.2,023.0,18.5,0002.5,0010.59,0015.49,0010.15
2024-01-23 14:47:00,SystemResetWarning,0825.9,5.01,000.00,021.7,020.6,000.0,030.2,023.0,18.6,0002.2,0010.62,0015.16,0010.22
2024-01-23 14:48:00,SystemResetWarning,0825.9,5.00,000.00,021.7,020.6,000.0,030.2,023.0,18.6,0002.4,0010.67,0015.27,0010.26
2024-01-23 14:49:00,SystemResetWarning,0825.9,5.00,000.00,021.7,020.6,000.0,030.1,023.0,18.6,0002.3,0010.71,0015.47,0010.32
2024-01-23 14:50:00,SystemResetWarning,0825.9,5.00,000.00,021.7,020.6,000.0,030.1,023.0,18.6,0002.1,0010.73,0015.45,0010.37
2024-01-23 14:51:00,SystemResetWarning,0825.9,5.00,000.00,021.7,020.6,000.0,030.1,023.0,18.6,0001.9,0010.79,0015.51,0010.42
2024-01-23 14:52:00,SystemResetWarning,0825.9,5.00,000.00,021.7,020.6,000.0,030.1,023.0,18.5,0001.9,0010.85,0015.14,0010.45
2024-01-23 14:53:00,SystemResetWarning,0825.9,4.99,000.00,021.7,020.6,000.0,030.1,023.0,18.5,0001.9,0010.92,0015.16,0010.50
2024-01-23 14:54:00,SystemResetWarning,0825.9,5.01,000.00,021.7,020.6,000.0,030.1,023.0,18.5,0001.7,0010.99,0015.31,0010.55
2024-01-23 14:55:00,SystemResetWarning,0825.9,5.01,000.00,021.7,020.6,000.0,030.1,023.0,18.5,0001.6,0011.07,0015.62,0010.57
2024-01-23 14:56:00,SystemResetWarning,0826.0,5.01,000.00,021.7,020.6,000.0,030.1,023.0,18.4,0001.5,0011.11,0015.78,0010.59
2024-01-23 14:57:00,SystemResetWarning,0825.9,4.99,000.00,021.7,020.6,000.0,030.1,023.0,18.4,0001.7,0011.11,0015.72,0010.60
2024-01-23 14:58:00,SystemResetWarning,0825.9,4.99,000.00,021.7,020.7,000.0,030.1,023.0,18.4,0002.1,0011.11,0015.62,0010.60
2024-01-23 14:59:00,SystemResetWarning,0825.9,5.00,000.00,021.7,020.7,000.0,030.1,023.1,18.4,0002.0,0011.08,0016.10,0010.60
